Weather History for Eureka, NV

Change the Weather History Date:

Saturday, March 2, 2013

  Actual Average Record
Temperature  
Mean Temperature 38 °F 34 °F  
Max Temperature 52 °F 47 °F 64 °F (1967)
Min Temperature 24 °F 20 °F 2 °F (1996)
Degree Days  
Heating Degree Days 27 31  
Month to date heating degree days 56 63  
Since 1 July heating degree days 5144 5348  
Cooling Degree Days 0 0  
Month to date cooling degree days 0 0  
Year to date cooling degree days 0 0  
Moisture  
Dew Point 29 °F    
Average Humidity 68    
Maximum Humidity 92    
Minimum Humidity 44    
Precipitation  
Precipitation 0.00 in 0.03 in 0.25 in (1964)
Month to date precipitation 0.00 0.06  
Year to date precipitation 1.91 1.66  
Sea Level Pressure  
Sea Level Pressure 30.26 in    
Wind  
Wind Speed 4 mph (South)    
Max Wind Speed 10 mph    
Max Gust Speed 12 mph    
T = Trace of Precipitation, MM = Missing Value Source: NWS Daily Summary

Daily Weather History Graph

Daily Weather History Graph

Search for Another Location

Airport:

Trip Planner

Search our weather history database for the weather conditions in past years. The results will help you decide how hot, cold, wet, or windy it might be!

Date:

Astronomy

Mar. 02, 2013 Rise Set
Actual Time 6:15 AM PST 5:37 PM PST
Civil Twilight 5:48 AM PST 6:04 PM PST
Nautical Twilight 5:16 AM PST 6:35 PM PST
Astronomical Twilight 4:45 AM PST 7:07 PM PST
Moon 11:20 PM PST (3/2) 8:47 AM PST (3/2)
Length of Visible Light 12h 16m
Length of Day
11h 22m
Waning Gibbous, 73% of the Moon is Illuminated
Mar 2
Waning Gibbous
Mar 4
Last Quarter
Mar 11
New
Mar 19
First Quarter
Mar 27
Full

Hourly Weather History & Observations

Time (PST) Temp. Windchill Dew Point Humidity Pressure Visibility Wind Dir Wind Speed Gust Speed Precip Events Conditions
12:53 AM 28.9 °F 21.1 °F 24.1 °F 82% 30.44 in - South 8.1 mph - N/A   Unknown
1:53 AM 27.0 °F 21.6 °F 21.9 °F 81% 30.41 in - South 4.6 mph - N/A   Unknown
2:53 AM 27.0 °F 20.5 °F 23.0 °F 85% 30.38 in - South 5.8 mph - N/A   Unknown
3:53 AM 27.0 °F 20.5 °F 24.1 °F 89% 30.38 in - SSW 5.8 mph - N/A   Unknown
4:53 AM 26.1 °F 17.6 °F 23.0 °F 88% 30.37 in - SW 8.1 mph - N/A   Unknown
5:53 AM 25.0 °F - 21.9 °F 88% 30.41 in - Calm Calm - N/A   Unknown
6:53 AM 26.1 °F - 23.0 °F 88% 30.43 in - Calm Calm - N/A   Unknown
7:53 AM 30.9 °F - 27.0 °F 85% 30.41 in - Calm Calm - N/A   Unknown
8:53 AM 35.1 °F 31.0 °F 30.0 °F 82% 30.38 in - SSW 4.6 mph - N/A   Unknown
9:53 AM 39.0 °F 36.8 °F 30.0 °F 70% 30.35 in - NE 3.5 mph - N/A   Unknown
10:53 AM 46.9 °F - 32.0 °F 56% 30.29 in - North 5.8 mph - N/A   Unknown
11:53 AM 45.0 °F 41.2 °F 34.0 °F 65% 30.29 in - East 6.9 mph - N/A   Unknown
12:53 PM 48.0 °F - 33.1 °F 56% 30.25 in - ENE 5.8 mph - N/A   Unknown
1:53 PM 51.1 °F - 30.9 °F 46% 30.21 in - Calm Calm - N/A   Unknown
2:53 PM 51.1 °F - 33.1 °F 50% 30.18 in - Calm Calm - N/A   Unknown
3:53 PM 48.0 °F - 34.0 °F 58% 30.17 in - South 3.5 mph - N/A   Unknown
4:53 PM 46.9 °F - 33.1 °F 59% 30.15 in - Calm Calm - N/A   Unknown
5:53 PM 39.9 °F - 30.9 °F 70% 30.17 in - Calm Calm - N/A   Unknown
6:53 PM 35.1 °F 32.2 °F 30.0 °F 82% 30.17 in - Variable 3.5 mph - N/A   Unknown
7:53 PM 35.1 °F - 30.0 °F 82% 30.15 in - Calm Calm - N/A   Unknown
8:53 PM 35.1 °F 30.1 °F 30.0 °F 82% 30.13 in - South 5.8 mph - N/A   Unknown
9:53 PM 34.0 °F 29.8 °F 30.0 °F 85% 30.09 in - SSW 4.6 mph - N/A   Unknown
10:53 PM 35.1 °F 31.0 °F 30.9 °F 85% 30.04 in - West 4.6 mph - N/A   Unknown
11:53 PM 39.9 °F 35.1 °F 30.0 °F 68% 30.01 in - South 6.9 mph - N/A   Unknown